DECAYED
Showing default

BRIK-II, 48876 (Decayed)

Orbit data source: Space-Track

BRIK-II, 48876 was a payload satellite owned by RNAF (NL) in LEO that was launched on Wed, 30 Jun 2021 UTC via an LAUNCHERONE launch vehicle from the Pegasus Launch, Western Range Air Space (WRAS). Payload-class satellites include a variety of spacecraft equipped with specific instruments for various scientific and technological missions. These include communications satellites like Starlink; space stations such as the ISS; scientific satellites like the Hubble; Earth observation satellites from companies like Planet Labs, Umbra, and HawkEye 360; GPS; miniature CubeSats for education and research; and military/defense satellites.

Not visible in the next 10 days
Identifier
48876, 2021-058F
Orbit
Decayed
Country
Flag of NLNL / NETH
Related business
Manufacturer
ISIS BV
Mission
Decayed Defense Technology
Bus & Motor
CUBESAT 6U, Unknown motor
Mass
10 kg wet, 10 kg dry
Launch date (UTC)
2021-06-30 (5 years ago)
Launch vehicle
LAUNCHERONE
Launch site
Pegasus Launch, Western Range Air Space (WRAS)
Object type
Payload
Rocket body
Debris
Shape & HBR
Box, 0.1 m
Radar Cross Section
0.080 m², Medium (>0.1 m² and < 1m²)

Expand to show TLE details & history
Last TLE update: 5 months ago

TLE from 5 months ago
0 BRIK-II
1 48876U 21058F   25316.25308731  .06135598  10002-4  48554-3 0  9998
2 48876  60.6336 241.4995 0001645   8.9046 351.2124 16.39591166244999
Epoch: 2025-11-12T06:04Z
TLE epoch observation values (Epoch: 2025-11-12T06:04:26.743Z)
Latitude
-0.00005°
Longitude
98.7601°
Altitude
167.568 km
Speed
7.807 km/s
True Right ascension
16h 05m 59s
True Declination
0° 00' 00"
Sunlit
Object was in daylight at epoch
Visualization orbit readout
Latitude
Unknown
Longitude
Unknown
Altitude
Unknown
Speed
Unknown
Apparent Right ascension
Unknown
Apparent Declination
Unknown
Sunlit
N/A
Visualization observer readout
Local Sidereal Time
06:36:12
Azimuth
Unknown
Elevation
Unknown
Doppler factor
Unknown
Orbital elements
Apogee altitude
167.034 km
Perigee altitude
164.881 km
Semi-major axis
6,544.094 km
Eccentricity
0.00016
Inclination
60.6336°
RAAN
241.4995°
Arg. of periapsis
8.9046°
True anomaly
351.20952°
Mean anomaly
351.2124°
Eccentric anomaly
351.21096°
Mean motion
4.09986 °/min
Orbital period
87.81 mins
BSTAR
0.00048554
Loading maneuver chart data...
Computing Atmospheric mass density...
Loading historical data...
Loading historical data...
Loading historical data...
Loading historical data...
Loading historical data...
Loading historical data...
Loading historical data...

Documentation

Showing up to 5 results
|